OSCAR 18 (WEBERSAT)

Satellite information

Favourite Embed

Satellite Type and Status

PAYLOADIN ORBIT

Key statistics

Satellite OSCAR 18 (WEBERSAT) at a glance.

Uptime

12888

Days in orbit

Revolutions

≈ 14.3

Per day

Orbit

SSO

Sun Synchronous Orbit

Inclination

98.9

Latest

Satellite identification and parameters

Extended collection of information and parameters for OSCAR 18 (WEBERSAT).

Object identification

Identified? True

Debris? False

Object name: OSCAR 18 (WEBERSAT)

International designator: 1990-005F

Object number (NORAD): 20441

Object ID (CCSDS): 20441

Country: UNITED STATES OF AMERICA (US)

Current information (Y/N): Y

RCS size: MEDIUM

Orbital parameters

Period: 100.431 minutes

Inclination: 98.8991 deg

SMA: 7157.149 km

Apoapsis: 786.708 km

Periapsis: 771.32 km

RAAN: 138.019 deg

Eccentricy: 0.001075

Argument of periapsis: 340.9931 deg

Mean anomaly: 191.9331 deg

Mean motion: 14.33813501 rev/day

Mean motion (dot): 0.00000242 rev/day2

B* drag term: 0.0001037 1/REarth

Two-line elements (TLE)

Creation date: May 6, 2025, 3:54 a.m.

Reference frame: TEME

Reference center: EARTH

Epoch: May 5, 2025, 7:24 p.m. UTC

TLE line 0: 0 OSCAR 18 (WEBERSAT)

TLE line 1: 1 20441U 90005F 25125.80870322 .00000242 00000-0 10370-3 0 9992

TLE line 2: 2 20441 98.8991 138.0190 0010750 340.9931 191.9331 14.33813501843675

Live tracking on map

Real-time ground track for satellite OSCAR 18 (WEBERSAT).

In-orbit conjunctions

A list of the most updated potential collisions computed for object OSCAR 18 (WEBERSAT).

Target Orbit TCA Probability of collision Miss distance Type
COSMOS 2251 DEB LEO 2025-04-26 10:32:09 0.0003556794 242.0 (m) DEBRIS
FENGYUN 1C DEB SSO 2025-04-23 13:58:29 0.001562683 263.0 (m) DEBRIS
PEGASUS DEB LEO 2025-04-12 13:18:30 0.0001914167 106.0 (m) DEBRIS
SHIYAN 20A DEB LEO 2025-03-24 16:45:18 0.0002036902 866.0 (m) DEBRIS
FENGYUN 1C DEB SSO 2025-03-21 06:33:09 0.000252903 434.0 (m) DEBRIS

Associated space launch

French Earth observation satellite

OSCAR 18 (WEBERSAT) was lifted into orbit during the mission ‘Ariane 40 | SPOT 2’, on board a Ariane 40 space rocket.

The launch took place on Jan. 22, 1990, 1:35 a.m. from Ariane Launch Area 2.

For more information about the launch, click the button.

Launch to space Ariane 40 | SPOT 2
Ariane 40 | SPOT 2

Agency: N/A

Status: Launch Successful

Launch date: Jan. 22, 1990, 1:35 a.m. UTC

Rocket: Ariane 40

Launch pad: Ariane Launch Area 2

Location: Guiana Space Centre, French Guiana

...

Latest news about this satellite

There are no fresh news available about this satellite. Check back as we update our databases every day.


Newsletter sign-up

Weekly statistics, charts and insights to help you stay on top of the space industry.